Weather History for Houston Hull, TX

Change the Weather History Date:

Monday, February 18, 2013

  Actual Average Record
Temperature  
Mean Temperature 65 °F -  
Max Temperature 75 °F 65 °F 84 °F (1986)
Min Temperature 55 °F 45 °F 28 °F (1980)
Growing Degree Days 15 (Base 50)    
Moisture  
Dew Point 59 °F    
Average Humidity 72    
Maximum Humidity 90    
Minimum Humidity 63    
Precipitation  
Precipitation 0.11 in - - ()
Sea Level Pressure  
Sea Level Pressure 29.98 in    
Wind  
Wind Speed 16 mph (South)    
Max Wind Speed 26 mph    
Max Gust Speed 38 mph    
Visibility 10 miles    
Events Rain , Thunderstorm    
Averages and records for this station are not official NWS values.
T = Trace of Precipitation, MM = Missing Value Source: NWS Daily Summary

Daily Weather History Graph

Daily Weather History Graph

Search for Another Location

Airport:

Trip Planner

Search our weather history database for the weather conditions in past years. The results will help you decide how hot, cold, wet, or windy it might be!

Date:

Astronomy

Feb. 18, 2013 Rise Set
Actual Time 6:59 AM CST 6:14 PM CST
Civil Twilight 6:34 AM CST 6:38 PM CST
Nautical Twilight 6:06 AM CST 7:06 PM CST
Astronomical Twilight 5:39 AM CST 7:34 PM CST
Moon 12:13 PM CST 1:27 AM CST
Length of Visible Light 12h 03m
Length of Day
11h 15m
First Quarter, 58% of the Moon is Illuminated
Feb 18
First Quarter
Feb 25
Full
Mar 4
Last Quarter
Mar 11
New
Mar 19
First Quarter

Hourly Weather History & Observations

Time (CST) Temp. Dew Point Humidity Pressure Visibility Wind Dir Wind Speed Gust Speed Precip Events Conditions
2:53 AM 64.0 °F 54.0 °F 70% 30.01 in 10.0 mi South 15.0 mph - N/A   Overcast
3:53 AM 64.0 °F 55.0 °F 73% 30.00 in 10.0 mi South 12.7 mph - N/A   Overcast
4:53 AM 64.0 °F 55.9 °F 75% 29.99 in 10.0 mi South 11.5 mph - N/A   Overcast
5:53 AM 64.9 °F 55.9 °F 73% 29.99 in 10.0 mi South 15.0 mph 23.0 mph N/A   Overcast
6:53 AM 64.9 °F 57.0 °F 75% 29.99 in 10.0 mi South 12.7 mph 21.9 mph N/A   Overcast
7:53 AM 66.0 °F 57.9 °F 75% 29.99 in 10.0 mi South 15.0 mph - N/A   Overcast
8:53 AM 69.1 °F 59.0 °F 70% 29.99 in 10.0 mi South 21.9 mph 31.1 mph N/A   Overcast
9:26 AM 69.8 °F 59.0 °F 68% 29.97 in 10.0 mi South 20.7 mph 31.1 mph N/A   Overcast
9:53 AM 70.0 °F 60.1 °F 71% 30.00 in 10.0 mi South 24.2 mph 32.2 mph N/A   Overcast
10:07 AM 71.6 °F 60.8 °F 69% 29.97 in 10.0 mi South 21.9 mph 29.9 mph N/A   Overcast
10:40 AM 71.6 °F 60.8 °F 69% 29.98 in 10.0 mi South 16.1 mph 25.3 mph N/A   Overcast
10:51 AM 71.6 °F 60.8 °F 69% 29.98 in 10.0 mi South 17.3 mph 27.6 mph N/A   Overcast
10:53 AM 72.0 °F 60.1 °F 66% 30.00 in 10.0 mi South 17.3 mph 27.6 mph N/A   Overcast
11:32 AM 71.6 °F 60.8 °F 69% 29.98 in 10.0 mi South 13.8 mph 26.5 mph N/A   Overcast
11:45 AM 71.6 °F 60.8 °F 69% 29.96 in 10.0 mi South 18.4 mph 25.3 mph 0.00 in Rain Light Rain
11:53 AM 73.9 °F 62.1 °F 66% 29.98 in 10.0 mi South 20.7 mph 29.9 mph 0.00 in Rain Light Rain
12:53 PM 75.0 °F 63.0 °F 66% 29.94 in 10.0 mi South 23.0 mph 35.7 mph 0.00 in   Mostly Cloudy
1:53 PM 73.9 °F 62.1 °F 66% 29.91 in 10.0 mi South 25.3 mph 38.0 mph N/A   Mostly Cloudy
2:25 PM 73.4 °F 62.6 °F 69% 29.86 in 10.0 mi South 26.5 mph 35.7 mph 0.00 in Thunderstorm Mostly Cloudy
2:37 PM 73.4 °F 62.6 °F 69% 29.86 in 10.0 mi South 23.0 mph 31.1 mph 0.00 in Thunderstorm Overcast
2:53 PM 70.0 °F 64.0 °F 81% 29.89 in 6.0 mi SSW 13.8 mph 23.0 mph 0.02 in Rain , Thunderstorm Rain
6:53 PM 69.1 °F 64.0 °F 84% 29.94 in 10.0 mi SSW 13.8 mph - N/A   Scattered Clouds
8:53 PM 66.9 °F 63.0 °F 87% 29.97 in 10.0 mi SSW 12.7 mph 19.6 mph N/A   Clear
9:53 PM 66.0 °F 63.0 °F 90% 29.99 in 10.0 mi SSW 11.5 mph - N/A   Mostly Cloudy
10:35 PM 60.8 °F 48.2 °F 63% 30.04 in 8.0 mi NNW 21.9 mph 31.1 mph 0.03 in Rain Light Rain
10:53 PM 55.9 °F 48.9 °F 77% 30.08 in 7.0 mi North 11.5 mph - 0.08 in Rain Rain
11:53 PM 57.9 °F 51.1 °F 78% 30.11 in 10.0 mi North 9.2 mph - 0.01 in   Overcast